Вернуться в каталог

RADUGA 20

АктивенВоенныеGEO
NORAD 17611·PAYLOAD·🇷🇺 Russia

Запущен Mar 19, 1987 с Baikonur Cosmodrome

Loading…

TLE

СвежийSource: Space-Track

Эпоха: Sep 14, 2026, 09:52 UTC

1 17611U 87028A   26257.41180010 -.00000085  00000-0  00000-0 0  9992
2 17611  13.1806 327.7750 0026709 178.3145 244.2039  0.95960554139179

Отслеживайте RADUGA 20 в реальном времени с AllMySat

Download on the App Store